Tracking 20370 objects as of 20-Feb-2020
HD Live streaming from Space Station
objects crossing your sky now
Track the group of recently launched Starlink satellites

METEOR 2-14

Track METEOR 2-14 now!
10-day predictions
METEOR 2-14 is classified as:


NORAD ID: 16735
Int'l Code: 1986-039A
Perigee: 942.1 km
Apogee: 962.4 km
Inclination: 82.5 °
Period: 103.9 minutes
Semi major axis: 7323 km
RCS: 4.6711 m2 (large)
Launch date: May 27, 1986
Source: Commonwealth of Independent States (former USSR) (CIS)
Launch site: PLESETSK MISSILE AND SPACE COMPLEX (PKMTR)
aabbcc
Your satellite tracking list
Your tracking list is empty




NASA's NSSDC Master Catalog

Two Line Element Set (TLE):
1 16735U 86039A   20050.84933998 +.00000005 +00000-0 -89098-5 0  9993
2 16735 082.5387 324.6410 0013874 213.3944 208.4457 13.85304207704954
Source of the keplerian elements: AFSPC